| time (UTC) | temp F | wind direction | speed MPH | gust MPH | rain 1hr in | rain 24hr in | rain mn in | humidity % | barometer mb |
| 20260506173020 | 57 | 325 | 7.0 | 10.0 | 0.00 | 0.05 | 0.00 | 47 | 679.7 |
| 20260506172020 | 58 | 336 | 5.0 | 9.0 | 0.00 | 0.05 | 0.00 | 47 | 679.7 |
| 20260506171041 | 58 | 351 | 5.0 | 7.0 | 0.00 | 0.05 | 0.00 | 46 | 679.7 |
| 20260506165021 | 60 | 336 | 6.0 | 9.0 | 0.00 | 0.05 | 0.00 | 49 | 679.8 |
| 20260506164021 | 60 | 336 | 5.0 | 8.0 | 0.00 | 0.05 | 0.00 | 50 | 679.8 |
| 20260506163020 | 60 | 335 | 6.0 | 12.0 | 0.00 | 0.05 | 0.00 | 50 | 679.8 |
| 20260506162021 | 60 | 337 | 3.0 | 7.0 | 0.00 | 0.05 | 0.00 | 52 | 679.7 |
| 20260506161021 | 60 | 355 | 5.0 | 11.0 | 0.00 | 0.05 | 0.00 | 53 | 679.7 |
| 20260506160021 | 59 | 358 | 5.0 | 8.0 | 0.00 | 0.05 | 0.00 | 54 | 679.7 |
| 20260506155021 | 59 | 5 | 3.0 | 8.0 | 0.00 | 0.05 | 0.00 | 56 | 679.7 |
| 20260506154022 | 59 | 357 | 5.0 | 11.0 | 0.00 | 0.05 | 0.00 | 59 | 679.7 |
| 20260506153102 | 57 | 335 | 5.0 | 10.0 | 0.00 | 0.05 | 0.00 | 61 | 679.6 |
| 20260506152021 | 56 | 330 | 5.0 | 11.0 | 0.00 | 0.05 | 0.00 | 63 | 679.6 |
| 20260506151042 | 57 | 338 | 4.0 | 9.0 | 0.00 | 0.05 | 0.00 | 63 | 679.6 |
| 20260506150022 | 56 | 322 | 5.0 | 6.0 | 0.00 | 0.05 | 0.00 | 66 | 679.6 |
| 20260506145022 | 55 | 359 | 4.0 | 6.0 | 0.00 | 0.05 | 0.00 | 68 | 679.6 |
| 20260506144023 | 53 | 356 | 4.0 | 7.0 | 0.00 | 0.05 | 0.00 | 67 | 679.5 |
| 20260506143042 | 53 | 326 | 3.0 | 6.0 | 0.00 | 0.05 | 0.00 | 72 | 679.5 |
| 20260506142023 | 52 | 344 | 4.0 | 7.0 | 0.00 | 0.05 | 0.00 | 73 | 679.5 |
| 20260506141023 | 51 | 358 | 4.0 | 7.0 | 0.00 | 0.05 | 0.00 | 75 | 679.5 |
| 20260506140023 | 49 | 357 | 4.0 | 7.0 | 0.00 | 0.05 | 0.00 | 77 | 679.4 |
| 20260506135043 | 48 | 13 | 3.0 | 5.0 | 0.00 | 0.05 | 0.00 | 82 | 679.4 |
| 20260506134024 | 47 | 327 | 3.0 | 6.0 | 0.00 | 0.05 | 0.00 | 86 | 679.4 |
| 20260506133023 | 47 | 330 | 3.0 | 5.0 | 0.00 | 0.05 | 0.00 | 88 | 679.4 |
| 20260506132023 | 46 | 340 | 3.0 | 7.0 | 0.00 | 0.05 | 0.00 | 89 | 679.4 |
| 20260506131024 | 46 | 349 | 2.0 | 4.0 | 0.00 | 0.05 | 0.00 | 90 | 679.3 |
| 20260506130104 | 45 | 335 | 3.0 | 5.0 | 0.00 | 0.05 | 0.00 | 91 | 679.3 |
| 20260506125024 | 44 | 315 | 4.0 | 6.0 | 0.00 | 0.05 | 0.00 | 90 | 679.3 |
| 20260506124024 | 44 | 320 | 2.0 | 3.0 | 0.00 | 0.05 | 0.00 | 90 | 679.3 |
| 20260506123024 | 44 | 305 | 1.0 | 2.0 | 0.00 | 0.05 | 0.00 | 90 | 679.3 |
| 20260506122044 | 43 | 297 | 1.0 | 2.0 | 0.00 | 0.05 | 0.00 | 90 | 679.3 |
| 20260506121025 | 43 | 307 | 1.0 | 2.0 | 0.00 | 0.05 | 0.00 | 90 | 679.3 |
| 20260506120024 | 43 | 275 | 1.0 | 3.0 | 0.00 | 0.05 | 0.00 | 90 | 679.3 |
| 20260506115045 | 43 | 300 | 1.0 | 3.0 | 0.00 | 0.05 | 0.00 | 90 | 679.3 |
| 20260506114025 | 43 | 257 | 1.0 | 3.0 | 0.00 | 0.05 | 0.00 | 90 | 679.3 |
| 20260506113025 | 44 | 287 | 1.0 | 2.0 | 0.00 | 0.05 | 0.00 | 90 | 679.3 |
| 20260506112025 | 44 | 275 | 1.0 | 3.0 | 0.00 | 0.05 | 0.00 | 90 | 679.3 |
| 20260506111025 | 44 | 264 | 1.0 | 2.0 | 0.00 | 0.05 | 0.00 | 89 | 679.3 |
| 20260506110045 | 44 | 299 | 0.0 | 2.0 | 0.00 | 0.05 | 0.00 | 89 | 679.3 |
| 20260506105025 | 45 | 305 | 1.0 | 3.0 | 0.00 | 0.05 | 0.00 | 90 | 679.3 |
| 20260506104026 | 45 | 276 | 1.0 | 2.0 | 0.00 | 0.05 | 0.00 | 90 | 679.3 |
| 20260506103025 | 45 | 249 | 1.0 | 3.0 | 0.00 | 0.05 | 0.00 | 93 | 679.3 |
| 20260506102026 | 46 | 225 | 2.0 | 5.0 | 0.00 | 0.05 | 0.00 | 94 | 679.3 |
| 20260506101026 | 46 | 222 | 2.0 | 4.0 | 0.00 | 0.05 | 0.00 | 94 | 679.3 |
| 20260506100026 | 46 | 220 | 3.0 | 5.0 | 0.00 | 0.05 | 0.00 | 94 | 679.3 |
| 20260506095026 | 46 | 227 | 3.0 | 5.0 | 0.00 | 0.05 | 0.00 | 94 | 679.3 |
| 20260506094026 | 46 | 239 | 2.0 | 4.0 | 0.00 | 0.05 | 0.00 | 94 | 679.3 |
| 20260506093026 | 46 | 284 | 0.0 | 2.0 | 0.00 | 0.05 | 0.00 | 94 | 679.3 |
| 20260506092027 | 46 | 248 | 1.0 | 2.0 | 0.00 | 0.05 | 0.00 | 95 | 679.3 |
| 20260506091027 | 46 | 201 | 4.0 | 5.0 | 0.00 | 0.05 | 0.00 | 95 | 679.3 |
| 20260506090047 | 46 | 206 | 3.0 | 4.0 | 0.00 | 0.05 | 0.00 | 95 | 679.3 |
| 20260506085027 | 46 | 272 | 1.0 | 1.0 | 0.00 | 0.05 | 0.00 | 95 | 679.3 |
| 20260506084027 | 46 | 195 | 5.0 | 7.0 | 0.00 | 0.05 | 0.00 | 95 | 679.3 |
| 20260506083027 | 46 | 198 | 4.0 | 6.0 | 0.00 | 0.05 | 0.00 | 96 | 679.3 |
| 20260506082028 | 46 | 188 | 5.0 | 6.0 | 0.00 | 0.05 | 0.00 | 96 | 679.3 |
| 20260506081027 | 46 | 191 | 4.0 | 7.0 | 0.00 | 0.05 | 0.00 | 97 | 679.3 |
| 20260506073028 | 47 | 209 | 3.0 | 4.0 | 0.00 | 0.05 | 0.00 | 95 | 679.4 |
| 20260506072028 | 47 | 223 | 2.0 | 4.0 | 0.00 | 0.05 | 0.00 | 95 | 679.4 |
| 20260506071048 | 47 | 213 | 3.0 | 5.0 | 0.00 | 0.05 | 0.00 | 95 | 679.4 |
| 20260506062029 | 47 | 211 | 3.0 | 4.0 | 0.00 | 0.05 | 0.00 | 95 | 679.4 |
| 20260506061029 | 47 | 208 | 3.0 | 5.0 | 0.00 | 0.05 | 0.00 | 96 | 679.4 |
| 20260506051030 | 47 | 207 | 3.0 | 5.0 | 0.00 | 0.05 | 0.00 | 97 | 679.4 |
| 20260506045030 | 47 | 202 | 4.0 | 5.0 | 0.00 | 0.05 | 0.00 | 97 | 679.4 |
| 20260506044031 | 47 | 216 | 3.0 | 4.0 | 0.00 | 0.05 | 0.00 | 97 | 679.4 |
| 20260506043030 | 47 | 203 | 3.0 | 6.0 | 0.00 | 0.05 | 0.00 | 97 | 679.4 |
| 20260506042030 | 47 | 188 | 8.0 | 12.0 | 0.00 | 0.05 | 0.00 | 95 | 679.4 |
| 20260506041031 | 48 | 199 | 6.0 | 8.0 | 0.00 | 0.05 | 0.00 | 95 | 679.4 |
| 20260506040031 | 48 | 174 | 5.0 | 7.0 | 0.00 | 0.05 | 0.00 | 95 | 679.4 |
| 20260506035031 | 48 | 193 | 4.0 | 6.0 | 0.00 | 0.05 | 0.05 | 94 | 679.4 |
| 20260506034031 | 48 | 177 | 5.0 | 8.0 | 0.00 | 0.05 | 0.05 | 94 | 679.4 |
| 20260506033051 | 48 | 188 | 5.0 | 7.0 | 0.00 | 0.05 | 0.05 | 94 | 679.4 |
| 20260506032057 | 48 | 194 | 5.0 | 8.0 | 0.00 | 0.05 | 0.05 | 93 | 679.4 |
| 20260506031112 | 48 | 198 | 3.0 | 5.0 | 0.00 | 0.05 | 0.05 | 93 | 679.4 |
| 20260506030052 | 48 | 177 | 4.0 | 5.0 | 0.00 | 0.05 | 0.05 | 93 | 679.4 |
| 20260506025052 | 48 | 186 | 4.0 | 5.0 | 0.00 | 0.05 | 0.05 | 93 | 679.4 |
| 20260506024052 | 48 | 179 | 5.0 | 7.0 | 0.00 | 0.05 | 0.05 | 92 | 679.4 |
| 20260506023032 | 48 | 187 | 4.0 | 7.0 | 0.00 | 0.05 | 0.05 | 91 | 679.4 |
| 20260506022032 | 48 | 179 | 4.0 | 7.0 | 0.00 | 0.05 | 0.05 | 90 | 679.4 |
| 20260506021032 | 48 | 180 | 3.0 | 4.0 | 0.00 | 0.05 | 0.05 | 88 | 679.4 |
| 20260506020033 | 48 | 178 | 3.0 | 4.0 | 0.00 | 0.05 | 0.05 | 88 | 679.4 |
| 20260506015033 | 49 | 188 | 3.0 | 4.0 | 0.00 | 0.06 | 0.05 | 87 | 679.4 |
| 20260506014033 | 48 | 190 | 3.0 | 4.0 | 0.00 | 0.06 | 0.05 | 87 | 679.4 |
| 20260506013018 | 49 | 164 | 2.0 | 3.0 | 0.00 | 0.06 | 0.05 | 87 | 679.4 |
| 20260506012038 | 49 | 172 | 3.0 | 3.0 | 0.00 | 0.06 | 0.05 | 86 | 679.4 |
| 20260506011018 | 49 | 159 | 2.0 | 3.0 | 0.00 | 0.06 | 0.05 | 86 | 679.5 |
| 20260506010059 | 49 | 173 | 2.0 | 2.0 | 0.00 | 0.06 | 0.05 | 85 | 679.5 |
| 20260506005018 | 49 | 153 | 2.0 | 3.0 | 0.00 | 0.06 | 0.05 | 84 | 679.5 |
| 20260506004039 | 49 | 155 | 2.0 | 3.0 | 0.00 | 0.06 | 0.05 | 85 | 679.5 |
| 20260506003019 | 49 | 159 | 2.0 | 3.0 | 0.00 | 0.06 | 0.05 | 83 | 679.5 |
| 20260506002019 | 50 | 164 | 2.0 | 2.0 | 0.00 | 0.06 | 0.05 | 83 | 679.5 |
| 20260506001019 | 50 | 159 | 2.0 | 4.0 | 0.00 | 0.06 | 0.05 | 83 | 679.5 |
| 20260506000019 | 50 | 162 | 2.0 | 3.0 | 0.00 | 0.06 | 0.05 | 77 | 679.5 |
| 20260505235019 | 50 | 158 | 1.0 | 2.0 | 0.00 | 0.06 | 0.05 | 76 | 679.5 |
| 20260505234019 | 50 | 153 | 1.0 | 2.0 | 0.00 | 0.06 | 0.05 | 76 | 679.5 |
| 20260505233020 | 50 | 160 | 1.0 | 2.0 | 0.00 | 0.06 | 0.05 | 76 | 679.5 |
| 20260505232020 | 50 | 176 | 2.0 | 2.0 | 0.00 | 0.06 | 0.05 | 76 | 679.5 |
| 20260505231020 | 50 | 187 | 1.0 | 2.0 | 0.00 | 0.06 | 0.05 | 76 | 679.5 |
| 20260505230020 | 50 | 196 | 3.0 | 4.0 | 0.00 | 0.06 | 0.05 | 76 | 679.5 |
| 20260505225020 | 50 | 207 | 2.0 | 2.0 | 0.00 | 0.06 | 0.05 | 76 | 679.5 |
| 20260505224020 | 50 | 202 | 1.0 | 2.0 | 0.00 | 0.06 | 0.05 | 76 | 679.5 |
| 20260505223020 | 50 | 181 | 2.0 | 3.0 | 0.00 | 0.06 | 0.05 | 76 | 679.5 |
| 20260505222020 | 50 | 177 | 2.0 | 2.0 | 0.00 | 0.06 | 0.05 | 76 | 679.5 |
| 20260505221021 | 51 | 214 | 2.0 | 3.0 | 0.00 | 0.06 | 0.05 | 76 | 679.5 |
| 20260505220021 | 50 | 213 | 2.0 | 3.0 | 0.00 | 0.06 | 0.05 | 76 | 679.5 |
| 20260505215021 | 50 | 57 | 0.0 | 1.0 | 0.00 | 0.06 | 0.05 | 74 | 679.5 |
| 20260505214021 | 51 | 0.0 | 0.0 | 0.00 | 0.06 | 0.05 | 75 | 679.5 | |
| 20260505213021 | 50 | 333 | 0.0 | 1.0 | 0.00 | 0.06 | 0.05 | 75 | 679.5 |
| 20260505212021 | 50 | 0.0 | 0.0 | 0.00 | 0.06 | 0.05 | 74 | 679.5 | |
| 20260505211021 | 51 | 200 | 0.0 | 1.0 | 0.00 | 0.06 | 0.05 | 75 | 679.5 |
| 20260505210022 | 51 | 335 | 1.0 | 3.0 | 0.00 | 0.06 | 0.05 | 74 | 679.5 |
| 20260505205022 | 51 | 279 | 0.0 | 1.0 | 0.00 | 0.06 | 0.05 | 75 | 679.5 |
| 20260505204102 | 51 | 325 | 1.0 | 3.0 | 0.00 | 0.06 | 0.05 | 75 | 679.5 |
| 20260505203021 | 51 | 331 | 1.0 | 2.0 | 0.00 | 0.06 | 0.05 | 74 | 679.5 |
| 20260505202022 | 51 | 333 | 2.0 | 3.0 | 0.00 | 0.06 | 0.05 | 74 | 679.5 |
| 20260505201043 | 51 | 330 | 2.0 | 3.0 | 0.00 | 0.06 | 0.05 | 74 | 679.5 |
| 20260505200204 | 52 | 335 | 2.0 | 5.0 | 0.00 | 0.06 | 0.05 | 74 | 679.5 |
| 20260505195022 | 52 | 326 | 3.0 | 5.0 | 0.01 | 0.06 | 0.05 | 74 | 679.5 |
| 20260505194023 | 52 | 318 | 2.0 | 5.0 | 0.01 | 0.06 | 0.05 | 73 | 679.6 |
| 20260505193023 | 52 | 327 | 2.0 | 3.0 | 0.02 | 0.06 | 0.05 | 74 | 679.6 |
| 20260505192022 | 52 | 244 | 1.0 | 3.0 | 0.02 | 0.06 | 0.05 | 72 | 679.6 |
| 20260505191023 | 53 | 269 | 0.0 | 2.0 | 0.03 | 0.06 | 0.05 | 72 | 679.6 |
| 20260505190043 | 53 | 242 | 0.0 | 1.0 | 0.04 | 0.06 | 0.04 | 71 | 679.6 |
| 20260505185023 | 54 | 236 | 1.0 | 2.0 | 0.03 | 0.05 | 0.03 | 69 | 679.6 |
| 20260505184024 | 54 | 226 | 1.0 | 3.0 | 0.03 | 0.05 | 0.03 | 69 | 679.6 |
| 20260505183023 | 55 | 310 | 0.0 | 2.0 | 0.03 | 0.04 | 0.03 | 65 | 679.6 |
| 20260505182024 | 56 | 293 | 1.0 | 4.0 | 0.02 | 0.04 | 0.02 | 63 | 679.6 |
| 20260505181024 | 57 | 315 | 2.0 | 6.0 | 0.01 | 0.03 | 0.01 | 60 | 679.7 |
| 20260505180024 | 58 | 319 | 2.0 | 4.0 | 0.01 | 0.02 | 0.01 | 58 | 679.7 |
| 20260505175044 | 58 | 235 | 1.0 | 3.0 | 0.00 | 0.02 | 0.00 | 53 | 679.7 |
| 20260505174025 | 60 | 328 | 2.0 | 4.0 | 0.00 | 0.01 | 0.00 | 51 | 679.8 |